Wind_Speed
57 56 55 55 55 55 55 55 56 56 56 55 54 52 50 51 52 56 59 58 57 57 54 54 56 58 61 61 61 61 60 58 59 61 60 57 57 58 58 60 62 61 58 57 56 54 53 51 50 50 48 50 52 45 52 60 62 63 60 56 52 51 50 45 44 44 42 41 42 45 47 46 44 44 44 43 42 39 35 36 36 34 34 32 29 29
56 55 56 57 55 54 54 54 53 53 53 52 50 47 46 48 51 54 55 55 53 52 52 52 52 54 56 57 59 60 59 58 59 60 58 55 55 57 57 58 61 60 57 56 55 53 52 50 49 48 47 50 57 55 53 57 60 60 57 52 49 47 46 42 40 38 35 36 37 39 42 42 40 41 43 43 43 41 36 36 36 35 33 31 30 30
55 57 57 56 54 54 53 52 51 51 50 49 46 44 44 46 48 49 51 50 47 49 51 48 45 47 50 52 55 57 57 56 57 58 56 54 52 55 56 56 59 59 55 54 54 52 50 49 48 47 49 51 59 65 62 59 57 56 53 49 46 43 39 36 33 31 29 28 29 31 33 35 36 38 41 42 42 40 37 37 36 35 33 32 32 33
56 57 56 55 53 53 52 50 49 48 48 47 43 41 43 43 42 44 46 45 43 45 46 41 40 43 45 48 50 52 53 52 53 53 54 53 50 50 53 54 55 55 52 51 52 50 48 48 47 48 51 53 58 64 66 62 55 51 48 44 41 38 34 31 31 29 28 27 27 28 30 32 33 35 38 40 39 38 38 40 39 36 33 33 35 35
57 56 54 54 53 52 51 48 46 45 47 46 40 40 42 41 39 40 41 41 39 39 39 37 36 37 39 43 45 46 47 47 48 48 49 51 49 47 49 51 53 52 48 47 47 47 46 45 45 46 50 55 58 60 60 57 48 44 42 37 34 33 31 31 31 30 30 29 29 30 33 35 35 34 36 36 35 37 40 42 41 38 35 35 37 39
56 55 53 53 52 51 49 45 44 44 46 43 40 40 42 41 40 39 39 38 35 34 35 34 31 30 33 36 39 41 42 42 42 42 43 47 49 47 46 47 49 48 43 40 42 42 42 43 43 44 48 53 56 58 58 56 47 41 39 36 34 34 31 30 31 32 31 31 33 35 37 39 39 38 36 35 34 36 38 38 38 37 36 37 39 41
55 54 53 52 52 49 46 45 44 45 44 42 41 42 43 43 41 40 39 38 37 36 36 33 31 30 30 33 39 41 42 42 42 42 42 46 50 48 44 44 46 45 41 38 40 41 41 41 41 42 44 45 49 53 57 58 54 46 41 39 39 37 33 31 31 31 31 29 33 39 41 41 41 40 38 37 38 37 35 36 37 36 35 37 40 42
55 54 52 52 51 47 45 46 46 45 43 43 44 44 44 44 42 40 40 40 41 40 38 37 37 36 34 37 42 43 43 44 45 46 44 46 50 50 48 47 45 45 42 39 40 41 41 39 39 40 39 38 40 44 49 53 53 49 45 42 40 38 36 34 32 32 32 29 31 38 43 44 42 40 39 40 43 43 40 39 39 37 36 37 39 42
54 54 52 52 50 46 46 48 47 45 43 44 47 45 45 45 43 43 42 43 44 41 40 42 43 42 40 42 45 45 47 47 48 49 49 50 49 51 54 51 47 45 41 39 40 42 41 39 39 39 39 37 34 33 38 46 47 47 47 43 39 39 37 34 31 32 32 30 31 36 42 45 43 42 40 40 43 47 47 47 46 44 42 40 41 44
55 54 52 51 49 47 47 48 48 46 44 46 47 45 45 45 44 45 45 45 45 42 42 46 48 47 45 46 48 47 48 50 52 52 53 55 52 52 56 54 50 47 42 40 39 40 41 39 39 41 41 37 32 33 40 47 47 44 45 42 38 37 35 31 29 31 33 32 33 36 40 43 44 43 42 40 42 47 50 52 53 53 50 48 48 49
55 54 51 51 50 48 48 49 48 47 45 46 48 46 46 46 44 46 47 46 45 44 45 49 52 51 48 49 51 50 49 52 54 54 55 56 55 53 54 53 49 45 42 40 38 39 40 38 39 43 44 40 35 40 49 49 43 39 38 39 38 36 33 30 28 29 31 32 34 36 37 40 43 43 43 42 42 46 50 51 52 52 51 50 51 51
55 53 51 51 52 50 50 51 49 47 45 46 48 47 47 47 46 47 48 47 45 44 48 52 54 54 52 52 53 52 51 52 54 56 56 55 55 54 52 50 46 42 41 38 37 39 39 38 39 41 47 44 40 44 47 41 35 34 34 34 37 37 34 30 28 30 30 30 33 35 36 38 40 43 44 43 43 45 49 51 50 51 50 49 48 48
55 54 53 53 53 52 51 50 49 48 46 46 48 49 48 48 47 47 48 47 45 46 50 54 54 55 56 54 53 53 52 53 55 57 56 53 52 51 47 44 41 39 37 35 35 38 39 41 44 45 48 47 44 45 44 38 36 36 33 32 35 37 35 31 29 29 29 30 32 35 36 37 39 42 44 45 45 46 49 51 51 52 53 52 50 49
55 54 53 52 53 53 52 50 50 49 48 47 48 50 50 49 49 48 49 48 47 47 50 54 55 55 57 55 53 53 52 52 54 55 53 49 45 42 39 36 34 32 32 31 33 37 39 41 45 46 47 44 43 43 41 41 43 41 34 31 33 36 36 33 31 32 31 32 33 35 37 38 38 41 45 47 47 47 50 52 53 54 55 56 54 53
55 55 54 54 53 53 52 51 50 50 49 47 48 50 51 51 51 51 50 49 47 49 51 54 55 55 56 55 53 53 52 51 51 51 48 44 38 34 31 30 27 25 26 28 30 33 35 36 37 39 38 38 39 38 38 42 45 43 37 30 30 33 35 33 32 34 35 35 36 37 38 39 39 41 44 47 48 48 49 51 53 55 56 58 58 56
56 55 55 55 53 52 52 52 51 50 50 50 50 51 52 53 52 51 51 50 48 49 51 54 55 55 56 55 55 54 51 47 44 43 41 38 33 28 27 27 23 22 25 27 27 29 30 30 33 36 35 35 34 33 33 37 40 41 36 28 25 27 30 31 32 33 35 38 40 41 42 41 40 41 43 45 48 48 49 50 52 56 58 59 60 58
54 54 55 56 54 52 51 52 53 52 52 53 51 50 52 54 53 52 53 52 50 49 51 55 57 56 56 54 52 50 47 44 39 37 36 33 28 25 27 26 21 24 28 27 26 27 26 26 28 31 31 29 27 28 30 31 33 36 33 28 25 24 24 26 30 33 36 40 43 43 44 43 42 44 44 44 47 48 49 50 52 56 59 62 63 62
54 54 54 55 54 53 52 52 54 54 54 55 53 52 52 54 54 53 54 53 52 51 52 55 57 56 54 50 46 44 43 40 35 31 30 27 24 23 26 25 24 29 31 28 26 25 25 25 25 26 26 24 22 23 25 26 28 30 30 26 22 22 22 21 26 32 35 39 44 44 44 45 45 46 46 45 46 47 48 50 52 54 57 61 63 64
53 52 52 53 55 56 55 55 56 57 57 57 56 54 54 54 54 54 54 53 53 54 53 54 55 53 50 46 42 40 39 35 31 28 28 25 23 25 27 27 29 33 32 28 25 24 26 27 27 26 24 21 20 20 21 23 25 26 24 21 20 22 22 21 24 32 35 36 42 44 45 46 47 48 49 48 47 48 48 47 49 51 55 59 61 63
51 51 52 54 59 60 58 57 57 58 58 58 58 56 55 55 55 54 55 54 54 53 53 53 52 49 44 40 37 35 33 31 30 31 32 29 27 27 29 29 33 35 33 29 27 28 28 26 25 26 25 22 20 21 22 23 26 28 24 20 22 23 22 24 28 32 34 35 37 40 43 45 45 46 50 51 50 50 51 50 50 52 54 57 59 62
53 53 55 59 63 63 58 56 57 58 59 59 58 57 54 54 54 53 53 53 53 52 51 50 47 43 40 36 33 31 30 29 29 30 32 32 31 31 31 32 36 38 35 31 31 32 28 21 19 22 23 22 22 23 25 24 26 30 27 24 26 27 23 21 22 24 27 32 33 33 37 42 45 46 50 52 52 52 54 54 55 55 56 58 59 60
58 58 60 63 65 63 59 56 58 59 58 57 56 54 53 52 52 51 51 51 51 49 47 45 42 38 36 34 31 30 30 30 30 30 30 32 34 35 36 36 38 40 39 36 35 34 30 24 22 22 20 19 21 25 28 28 27 31 34 33 31 29 24 18 17 23 26 30 31 29 33 40 45 49 52 52 52 52 54 56 56 57 58 57 57 56
63 62 64 66 65 62 59 58 58 58 56 56 54 52 51 51 50 50 50 49 48 46 43 41 37 32 29 29 29 30 31 32 34 34 33 34 37 38 40 41 42 43 43 40 39 38 36 35 34 32 28 24 24 25 28 30 33 38 43 41 34 30 29 29 31 35 36 36 36 35 38 40 42 47 49 48 50 52 53 55 56 56 55 54 53 52
65 64 64 64 62 59 57 56 56 55 55 55 53 50 51 50 49 48 48 47 47 43 39 36 33 26 23 25 27 28 30 32 36 37 37 37 39 42 44 45 46 46 45 44 44 44 43 43 44 44 41 37 34 32 32 35 39 43 49 47 39 35 35 35 37 39 38 41 43 41 41 41 41 43 43 43 46 49 52 54 54 54 53 51 50 48
64 63 61 61 59 56 55 55 54 53 54 54 52 51 51 49 48 47 46 46 44 40 34 32 30 27 25 26 28 29 30 33 35 36 37 38 40 43 46 47 48 49 48 48 48 48 49 49 51 52 51 49 46 44 43 44 45 46 49 50 45 42 40 39 38 36 34 38 44 44 42 41 40 41 42 41 41 44 47 49 50 50 49 49 48 48
61 59 58 58 56 55 55 55 54 53 54 54 53 52 50 48 48 46 43 40 37 34 31 30 30 28 27 28 30 32 32 34 35 35 36 38 41 44 46 47 48 49 49 49 49 50 51 52 54 56 57 56 56 55 55 56 54 50 50 51 49 47 46 45 44 42 39 41 45 46 45 43 42 42 42 42 41 42 44 46 47 48 48 48 48 48
58 57 57 56 56 55 55 56 54 53 54 55 54 51 48 46 45 41 37 34 33 31 29 29 29 29 28 28 31 32 32 34 36 36 36 38 41 44 45 46 47 48 48 48 49 50 51 52 54 56 57 58 59 60 62 64 62 59 56 54 53 52 51 49 48 48 49 48 46 45 46 45 44 44 43 42 43 44 45 47 48 48 48 47 46 45
57 56 56 55 55 55 55 55 54 53 55 55 52 48 45 42 41 40 38 36 34 30 27 28 29 30 30 29 29 31 31 33 35 37 38 39 40 41 42 43 45 47 48 48 48 49 50 52 53 54 54 55 57 60 63 65 66 64 63 61 57 56 55 53 52 51 51 50 46 45 46 45 44 45 44 42 42 44 45 46 46 44 43 43 42 42
55 55 55 54 54 53 53 53 52 52 53 51 47 44 42 40 41 42 41 39 37 31 28 28 30 31 32 30 29 29 30 32 33 33 36 39 40 39 39 41 43 45 47 47 47 48 49 51 53 53 52 52 53 55 58 62 65 65 65 65 64 62 58 55 55 54 52 50 48 47 47 46 47 48 47 43 40 42 45 46 45 44 41 40 40 40
54 53 52 52 51 50 49 50 50 50 48 45 44 43 42 43 44 45 43 41 38 33 30 29 31 34 35 34 33 31 29 30 31 30 32 35 38 39 39 40 42 45 46 45 45 46 47 49 51 51 51 50 50 52 54 57 61 63 63 63 64 64 59 55 56 56 52 49 48 48 48 48 49 50 51 48 42 41 43 44 44 43 41 39 40 41
53 52 51 51 50 48 48 48 48 47 45 44 45 46 45 46 48 46 45 43 39 35 32 30 31 36 38 37 35 32 29 28 28 28 28 30 33 36 39 40 40 43 46 46 45 44 45 47 48 49 50 49 50 51 53 54 57 60 62 60 60 61 59 54 54 55 54 50 47 45 43 42 44 48 51 52 48 44 45 45 43 41 40 40 40 41
53 53 52 52 50 49 49 49 49 48 47 47 49 49 49 50 50 48 46 45 42 38 35 32 33 38 41 39 37 35 32 29 29 28 29 30 31 32 36 38 38 38 42 45 45 45 45 46 47 48 49 49 48 50 52 54 55 58 60 59 58 59 58 55 52 53 55 54 49 44 40 38 40 43 46 50 50 48 47 46 45 44 42 42 42 42
53 52 51 51 51 50 51 51 51 52 52 51 51 52 52 53 52 50 48 47 45 41 37 36 36 39 42 42 39 38 37 35 34 32 33 34 35 35 35 36 37 37 37 38 41 44 46 46 46 47 48 48 47 48 51 53 55 57 60 60 59 59 58 55 52 53 55 55 51 46 42 40 40 41 42 45 47 48 48 47 47 47 46 45 45 46
51 51 50 50 51 52 53 54 54 55 55 53 53 54 55 55 55 52 50 48 47 44 40 38 39 40 42 44 43 42 41 39 38 37 36 36 37 37 37 37 37 37 36 33 34 39 43 45 45 45 47 47 47 47 49 52 54 57 60 60 59 59 59 57 54 55 57 55 51 46 44 44 43 42 41 42 43 44 46 46 47 48 48 48 49 49
49 50 50 51 52 53 55 56 57 56 55 54 55 57 57 57 56 55 52 50 48 47 44 41 41 41 43 45 46 46 43 41 40 40 39 38 37 37 38 38 37 37 35 32 32 34 38 41 42 42 43 45 46 46 48 50 53 55 59 60 59 60 61 58 55 57 58 55 52 49 47 47 46 43 44 45 44 44 46 47 47 48 49 50 51 50
50 51 52 53 54 55 57 58 58 57 56 56 58 59 59 58 57 55 53 51 49 48 47 44 43 44 45 46 47 48 46 43 42 42 41 40 40 38 39 40 39 38 37 34 33 34 35 37 39 40 41 42 44 45 46 49 52 54 58 59 59 62 63 59 56 58 59 57 54 50 48 48 48 46 47 49 47 45 47 47 48 49 51 51 51 50
52 53 54 55 56 56 57 58 58 58 58 59 60 61 61 59 58 56 54 53 52 50 49 48 46 46 47 49 49 49 48 47 46 45 44 43 43 42 42 42 42 41 39 38 37 36 35 35 37 38 39 40 42 43 45 48 51 54 57 58 60 63 65 61 58 59 60 60 57 52 47 45 47 48 48 49 48 47 46 46 48 51 52 51 50 48
53 55 56 57 58 59 59 60 60 60 60 61 62 64 63 61 60 59 57 56 55 52 50 50 49 49 49 50 51 51 51 51 50 49 48 47 47 46 45 45 44 42 40 40 39 37 35 35 36 37 38 39 40 42 45 48 51 54 57 58 61 64 65 62 59 58 58 57 54 52 49 46 48 50 49 49 50 49 48 48 50 52 52 51 49 46
56 57 59 60 61 62 62 63 63 63 63 64 65 65 64 62 62 61 59 58 57 54 51 50 50 51 52 51 51 51 51 52 53 54 54 53 51 50 48 47 46 45 41 38 39 38 36 35 36 36 37 38 40 42 45 48 52 55 57 59 62 66 66 64 60 56 58 55 46 42 47 49 51 53 51 49 49 49 50 52 52 51 51 50 48 47
58 59 61 62 63 63 64 64 65 65 65 65 65 65 65 64 64 63 62 61 58 55 53 51 50 51 53 53 52 52 51 52 54 56 56 55 54 53 51 49 48 48 45 39 38 39 39 37 36 37 37 39 40 42 45 49 52 55 58 60 64 67 68 66 61 57 60 61 51 39 41 46 50 52 52 51 50 49 50 52 52 51 49 48 49 51
57 58 59 61 62 63 63 64 65 66 65 65 65 66 66 66 66 65 63 62 59 56 54 53 52 51 51 52 52 53 53 52 53 56 57 56 55 54 52 51 50 50 49 43 39 40 41 40 38 38 38 39 41 43 46 50 53 56 59 61 66 70 69 67 65 60 59 63 60 48 41 45 47 48 50 52 53 51 51 53 54 53 52 52 54 55
55 55 56 57 59 60 61 63 64 65 64 64 64 64 66 68 67 65 63 61 59 57 55 54 54 53 52 51 50 52 54 54 52 54 56 56 55 54 54 52 50 50 51 48 43 41 42 43 42 40 40 40 41 44 47 51 54 57 60 63 68 71 71 69 69 65 61 63 62 53 46 48 50 47 46 50 54 56 56 57 57 57 57 59 60 60
51 52 52 53 55 57 59 61 63 63 62 61 61 63 66 68 67 64 62 61 59 58 57 56 56 55 54 54 52 50 53 55 54 52 53 54 55 55 54 53 50 49 51 51 49 45 44 45 44 43 42 41 43 45 48 52 55 58 62 66 70 73 73 72 72 69 65 65 64 57 53 55 56 53 50 52 56 58 60 61 61 60 61 62 63 62
47 47 48 49 51 53 55 56 57 57 56 55 57 59 63 66 66 63 61 60 60 60 58 57 57 56 55 55 53 49 50 56 57 53 52 53 55 56 56 53 50 49 49 52 54 52 49 47 46 45 45 44 44 46 49 53 56 60 64 68 72 74 74 74 76 74 69 67 65 60 58 60 61 59 59 59 62 64 65 65 65 64 64 65 65 64
42 42 43 45 47 47 48 50 50 50 49 50 51 54 58 62 64 63 61 60 60 60 58 56 56 56 56 55 54 50 49 53 57 56 54 54 55 57 57 54 51 50 49 51 54 56 54 52 49 48 48 47 46 47 50 54 57 61 66 69 73 76 76 76 78 78 75 72 68 63 62 64 64 63 64 64 65 68 69 69 68 67 67 67 67 67
38 38 38 40 40 40 41 43 44 44 44 45 46 50 55 59 61 61 61 60 59 58 56 55 54 55 55 55 54 52 51 53 56 57 57 57 56 56 57 55 53 52 51 51 53 56 56 55 53 51 50 50 49 49 51 55 58 62 67 71 74 77 79 79 80 80 79 77 74 70 68 69 69 68 68 68 69 70 72 72 72 71 70 70 70 70
33 33 34 34 34 35 36 39 40 40 41 42 45 49 53 55 57 58 59 59 59 57 54 53 54 54 54 54 54 54 54 54 56 57 58 58 57 57 58 57 55 54 53 53 54 56 56 55 54 52 52 52 52 51 52 56 60 63 67 72 75 78 80 81 82 83 82 81 80 77 75 75 75 75 75 74 74 74 75 75 75 74 74 74 74 74
27 28 29 30 30 31 33 35 37 38 40 42 44 47 49 51 53 55 57 57 57 56 53 51 53 54 55 54 54 54 54 55 56 57 58 58 58 58 58 58 57 56 55 55 56 56 56 55 55 54 53 54 54 54 54 57 61 64 68 73 77 80 81 83 85 86 86 84 83 82 81 80 80 81 80 79 78 77 77 76 76 76 76 76 77 77
21 23 24 25 26 28 29 31 33 35 38 40 43 45 47 49 51 53 53 53 52 52 50 49 51 53 55 55 55 55 56 57 57 58 59 60 60 60 59 59 59 58 57 56 57 57 57 56 56 56 55 56 56 57 56 58 62 66 69 74 78 81 83 84 86 88 88 87 86 86 85 84 84 84 84 83 81 79 78 77 77 77 77 77 77 78
16 18 19 21 22 24 25 28 30 33 36 39 42 44 45 46 47 48 47 47 46 46 46 46 46 49 52 53 55 56 57 58 59 59 60 61 61 61 61 61 61 61 59 58 58 59 59 58 58 58 58 58 59 59 59 60 63 67 71 75 79 83 85 86 88 89 89 89 89 89 88 88 87 87 86 86 85 84 82 80 78 78 78 78 78 78
12 13 14 16 18 20 22 25 27 30 34 36 38 39 40 41 42 42 42 42 41 42 42 42 43 45 47 51 54 57 58 60 60 61 61 62 63 63 63 63 63 63 62 61 60 60 61 60 60 59 60 61 61 62 62 62 64 68 72 76 81 84 87 88 89 90 91 91 90 90 90 90 89 89 88 88 88 88 87 85 83 82 81 80 79 79
Wind_Direction
252 254 256 257 259 261 265 268 271 273 275 276 276 275 274 271 268 266 264 262 259 259 258 257 256 258 261 263 264 264 263 263 263 262 262 261 261 261 262 263 265 265 264 264 263 262 261 259 258 253 249 239 227 240 259 257 258 262 265 268 268 271 271 267 263 258 253 248 245 244 244 245 247 243 238 237 235 234 243 250 249 248 252 257 254 247
253 254 255 256 259 262 266 270 273 275 277 277 276 275 271 267 265 265 266 266 264 263 259 256 256 259 262 264 264 264 263 262 261 261 262 262 261 260 260 260 262 263 264 264 264 263 261 259 257 251 246 238 227 232 248 253 256 261 263 265 268 269 267 264 262 259 255 248 244 244 246 245 246 244 238 236 234 233 242 251 249 247 250 252 244 240
252 253 254 256 260 264 268 271 273 276 277 276 276 275 271 268 268 268 268 267 267 266 263 261 261 260 260 262 263 264 263 262 262 262 261 259 259 260 260 260 262 263 263 264 264 263 261 258 255 249 241 236 230 232 242 250 255 258 260 264 267 264 261 261 260 257 253 249 245 243 244 243 243 242 239 237 235 235 242 248 247 245 244 242 239 239
251 252 255 258 261 264 268 271 274 277 276 274 275 276 274 273 273 272 270 269 268 266 268 268 264 260 259 260 261 262 263 263 263 263 263 260 258 258 259 260 261 264 264 264 264 263 261 257 253 249 241 236 233 234 242 248 252 257 259 260 261 257 256 259 260 258 254 250 247 239 236 237 240 241 239 239 239 238 244 247 245 242 238 233 235 240
251 253 256 259 262 265 268 272 274 275 273 274 275 275 275 275 275 275 274 274 272 269 268 266 263 260 258 259 261 263 264 265 265 265 266 264 260 257 258 259 260 262 263 264 265 264 262 259 254 250 244 239 237 237 241 244 249 258 257 252 252 251 252 257 259 259 256 252 248 238 232 234 237 239 238 237 239 241 243 244 242 241 239 237 238 243
252 254 256 259 262 265 269 272 272 271 273 275 274 272 274 275 275 276 277 278 278 276 269 263 261 260 258 261 265 266 264 264 265 265 267 267 264 259 259 262 263 263 262 262 264 264 262 260 256 251 247 244 241 239 239 241 247 257 254 245 245 245 245 253 257 255 254 253 248 238 232 232 232 236 237 231 232 237 238 239 240 241 242 241 241 246
252 255 257 259 262 266 269 269 268 269 272 275 273 272 273 274 274 276 278 281 280 277 274 270 266 262 260 263 264 265 266 265 264 263 264 266 266 265 263 262 263 263 262 260 260 260 259 258 256 252 249 247 245 243 243 244 246 250 250 241 239 242 241 248 254 254 254 254 250 240 233 232 232 234 237 232 229 231 232 235 237 240 242 242 243 247
252 255 257 259 262 266 267 266 266 269 271 272 270 270 272 274 276 277 278 278 276 275 278 277 272 267 263 261 262 264 265 266 266 265 265 266 269 272 269 263 262 263 263 262 261 262 260 258 257 257 255 252 249 248 249 251 247 243 244 238 235 240 238 241 250 253 254 254 251 243 236 234 232 232 236 234 231 231 232 235 236 238 242 245 248 250
253 255 257 260 262 264 264 264 265 267 269 269 268 270 272 274 276 277 276 275 275 276 279 277 274 270 266 263 264 266 267 268 269 269 269 267 268 271 271 269 268 266 265 263 261 260 259 257 256 254 252 247 243 242 248 254 249 240 238 233 230 234 234 237 246 249 251 252 251 247 241 237 235 233 234 236 237 236 237 240 242 244 247 249 250 251
253 255 257 259 261 262 261 262 264 266 268 268 269 271 272 273 274 275 274 274 276 278 278 276 274 270 268 267 268 269 272 274 274 274 274 272 270 269 270 271 269 268 266 262 259 257 255 254 253 250 245 238 230 224 232 242 243 238 234 228 225 228 231 238 246 248 250 250 249 247 243 240 238 235 235 237 241 243 244 245 246 249 253 254 253 252
252 255 257 259 260 259 259 260 263 266 268 269 271 272 272 272 272 272 272 273 275 277 276 273 272 272 271 271 272 273 275 278 278 278 277 276 275 272 271 270 268 267 263 258 252 249 245 240 243 248 246 237 225 219 224 230 233 232 231 227 224 228 235 244 249 251 253 252 248 247 245 243 241 239 237 237 239 244 248 249 250 252 255 257 258 257
251 254 255 257 257 257 258 260 263 266 267 268 270 271 271 271 271 271 272 272 273 274 272 271 272 273 273 273 275 276 277 278 279 279 278 277 276 274 272 270 269 265 259 255 247 241 236 228 230 242 246 238 226 223 223 223 225 230 232 228 226 230 237 246 253 255 257 255 251 249 247 245 242 240 238 237 238 240 246 251 253 252 252 255 258 261
252 253 254 255 257 258 258 260 262 264 264 266 268 271 271 272 272 271 271 272 272 271 270 272 273 274 274 274 275 277 278 278 279 279 279 279 278 276 274 271 268 262 257 253 245 237 230 223 220 228 237 235 228 228 225 219 222 232 237 230 225 229 234 243 254 257 259 260 256 252 250 247 243 240 237 238 239 238 241 247 251 250 250 252 254 257
252 253 254 254 256 257 258 258 260 262 264 266 268 270 272 273 272 270 270 271 271 271 272 274 275 275 275 276 276 277 277 279 280 280 279 278 279 279 275 270 263 257 253 246 238 232 227 224 222 225 231 231 228 229 228 224 226 232 237 233 228 231 235 243 252 255 259 265 262 255 252 249 246 242 239 239 241 241 241 243 247 249 250 251 252 254
250 252 253 253 253 256 258 259 260 262 265 267 268 270 271 272 271 270 270 271 272 273 274 276 276 277 277 278 278 278 278 279 280 278 277 274 274 274 268 260 254 248 243 233 226 225 225 225 226 223 225 227 227 228 229 228 229 231 234 234 233 234 237 243 253 257 262 268 266 260 255 252 250 246 242 241 242 244 246 245 245 248 250 252 252 253
249 251 253 254 254 255 257 259 261 263 266 267 268 269 270 270 270 270 271 271 272 274 276 277 277 277 278 278 280 280 280 279 274 270 270 269 268 262 250 244 241 231 223 214 210 214 216 217 217 214 216 222 223 225 227 228 231 231 228 229 235 237 238 244 254 260 263 266 266 263 258 253 250 249 245 243 244 246 249 250 248 247 249 250 251 252
249 250 252 254 255 255 256 259 262 265 267 269 269 268 267 267 268 269 271 272 274 276 277 277 277 277 278 280 282 282 280 276 269 262 261 264 263 249 233 230 222 206 200 196 196 200 201 202 204 205 208 213 216 220 222 226 231 230 225 228 236 238 239 246 255 262 264 264 263 262 258 252 247 249 248 245 246 247 249 251 252 251 250 250 250 251
250 251 252 254 256 255 255 259 264 267 268 268 268 265 264 265 267 268 270 273 276 277 277 277 278 279 280 280 280 277 274 271 266 256 251 253 253 235 221 216 201 187 186 188 191 191 185 183 187 190 194 200 208 216 219 221 226 226 225 228 230 229 231 244 260 267 267 263 260 258 254 251 248 247 248 247 246 246 247 250 252 253 253 252 252 252
251 252 253 254 255 255 256 260 265 267 268 267 265 264 263 264 266 268 271 274 276 277 278 278 279 280 280 280 277 271 267 262 253 241 233 237 238 223 210 204 190 180 182 189 193 191 184 181 184 192 200 206 213 217 216 215 217 217 216 217 218 221 227 236 250 257 256 252 252 252 250 251 252 248 245 245 244 243 244 246 249 250 251 252 252 253
250 251 252 254 255 257 261 265 267 266 265 264 263 263 264 265 267 270 273 275 276 278 279 279 279 280 280 280 274 266 260 250 238 229 224 226 226 214 202 194 184 179 183 191 194 193 188 187 193 201 208 211 212 214 212 210 211 208 204 207 213 217 223 229 236 247 254 253 252 254 252 252 254 249 244 242 242 243 243 244 248 250 251 253 254 256
249 250 253 256 259 261 264 265 265 263 262 263 264 266 267 268 270 272 275 276 278 279 280 280 280 279 277 274 267 261 255 242 229 224 222 220 218 210 199 190 184 182 185 190 193 191 189 192 204 211 213 211 210 212 209 207 211 209 203 202 209 211 213 225 245 257 262 264 263 260 257 254 252 249 246 243 241 243 245 246 250 253 254 257 259 260
251 253 256 258 260 262 263 261 260 261 262 264 265 267 268 269 271 273 275 277 279 280 279 278 278 275 272 268 258 251 246 236 226 223 220 216 214 210 203 196 189 185 188 194 197 195 193 199 207 210 217 221 218 217 214 211 213 210 204 204 208 210 203 206 245 255 251 256 256 248 245 248 247 246 246 245 243 243 244 246 249 252 255 257 260 262
254 255 257 259 260 262 262 261 260 262 263 263 265 267 268 269 271 273 275 277 278 278 277 275 272 269 266 262 252 243 237 233 229 227 223 216 211 209 206 203 197 191 193 200 203 201 199 201 202 199 201 206 206 211 216 219 222 212 204 205 207 208 204 200 214 227 228 233 234 228 229 237 244 246 247 247 245 244 245 245 247 250 253 256 259 261
254 255 256 258 259 260 261 260 261 262 262 264 266 267 268 270 272 273 274 276 277 277 277 273 265 257 249 246 246 241 236 234 233 231 227 220 213 210 207 206 205 201 201 204 207 209 208 206 204 202 203 203 200 201 206 216 225 217 206 206 209 211 213 210 211 218 221 224 228 229 230 235 242 245 244 245 246 246 246 247 248 250 252 254 256 257
254 254 255 256 257 258 258 259 260 261 262 264 265 266 267 269 270 271 274 276 276 276 274 265 255 248 240 236 240 241 236 231 230 230 228 222 216 213 211 210 211 210 211 212 213 215 216 213 211 210 210 212 210 209 209 212 219 217 209 210 214 215 215 213 215 220 224 228 232 231 230 233 238 238 236 238 241 244 245 246 247 248 249 250 252 254
254 254 254 255 255 256 256 257 258 259 261 263 263 264 266 268 270 271 273 274 275 274 268 256 248 246 242 236 237 239 236 230 227 225 224 221 217 215 213 213 216 216 216 219 220 220 220 218 217 216 217 218 218 219 221 220 219 216 212 212 215 216 214 212 214 219 225 234 236 233 230 232 234 233 232 235 238 243 247 248 249 250 250 251 252 253
253 253 253 254 255 254 255 255 256 257 258 260 261 263 265 267 269 270 268 269 272 271 262 248 243 243 240 235 236 239 238 233 229 225 221 219 218 216 215 215 218 219 219 222 223 224 223 222 222 222 222 223 223 223 226 227 225 221 218 215 213 212 213 215 217 220 226 233 235 232 230 232 233 233 233 235 239 244 248 251 253 254 253 253 253 254
252 252 252 253 254 254 254 255 255 255 255 257 260 262 263 264 265 265 265 266 269 267 254 243 240 241 240 238 238 240 238 232 228 226 223 223 222 221 220 219 220 221 221 223 224 225 226 226 226 226 227 227 227 226 228 229 229 227 225 221 217 215 217 220 222 223 227 230 232 231 231 232 235 234 233 234 237 242 248 252 255 256 255 254 255 256
251 251 251 251 251 252 253 253 253 254 255 258 259 259 259 260 261 263 264 265 265 262 251 242 239 238 241 241 238 237 236 232 228 226 226 228 228 228 227 225 224 223 222 223 225 226 227 228 228 228 229 230 230 229 229 230 230 230 229 227 224 223 224 226 224 222 224 228 231 231 231 234 236 236 235 236 238 241 245 251 257 260 259 258 257 256
250 250 250 249 250 250 250 251 253 254 256 258 258 257 257 259 260 262 263 264 263 258 252 249 244 240 241 240 237 237 237 234 232 232 231 232 233 233 233 232 229 226 225 224 226 228 229 229 229 229 230 232 232 232 231 230 230 230 229 228 226 225 224 224 222 220 220 226 231 233 235 239 241 241 239 239 240 242 245 250 257 260 259 257 256 255
247 247 246 246 247 247 248 249 251 254 255 256 256 257 257 258 260 261 263 264 263 256 251 252 249 243 240 238 237 237 237 235 237 239 239 237 236 236 236 236 234 231 228 228 229 230 231 231 230 230 231 232 233 233 232 230 229 228 226 224 221 219 217 217 219 217 217 222 227 230 235 242 245 246 244 240 241 247 251 253 256 257 254 252 252 253
244 242 242 243 244 244 246 248 249 251 253 253 253 255 256 257 259 261 262 264 264 258 251 248 248 244 238 235 236 236 236 238 241 245 249 250 249 245 239 237 237 233 229 229 231 231 232 233 232 232 231 232 232 232 231 229 227 224 222 220 216 213 211 213 215 214 215 220 223 223 229 236 240 244 247 245 246 250 252 253 255 255 252 251 251 252
241 239 238 239 240 241 244 246 248 249 250 251 252 254 256 257 259 260 261 263 264 261 252 244 245 245 239 234 235 236 235 237 241 245 250 251 251 250 245 240 238 234 230 230 232 233 233 233 234 234 233 232 232 231 229 227 224 221 218 217 214 210 207 208 211 211 213 217 218 219 223 229 234 240 245 248 250 251 251 252 255 256 256 255 255 254
238 238 236 236 237 239 242 244 246 247 249 250 252 254 255 257 259 260 260 260 260 261 255 244 242 245 242 237 237 237 237 238 240 243 246 247 247 248 247 245 242 238 234 232 232 232 232 233 235 235 233 232 231 229 226 224 222 219 217 216 213 209 205 205 207 209 211 213 213 215 220 225 231 236 239 244 250 252 252 253 255 258 260 259 258 257
238 237 236 236 238 239 241 243 245 247 248 250 251 253 254 256 259 260 260 259 258 259 257 248 241 242 243 241 240 241 242 243 243 243 244 246 246 246 247 247 245 241 237 233 230 229 230 232 234 234 232 230 228 226 224 223 220 218 215 214 212 207 203 203 205 207 210 210 210 213 216 222 229 234 236 241 248 251 253 256 257 258 259 258 257 257
238 239 238 238 239 240 241 243 245 246 248 248 249 251 253 254 257 258 259 259 259 259 258 252 244 241 241 241 243 245 245 245 246 244 244 245 247 249 250 251 249 244 240 236 232 230 230 231 232 233 231 228 226 225 223 222 220 217 215 213 210 205 202 202 205 207 209 211 212 214 218 224 231 236 237 240 244 249 252 255 255 255 255 255 256 258
238 240 241 241 241 242 243 244 245 246 247 248 248 250 252 253 255 256 256 257 258 259 258 252 246 243 241 239 241 243 245 246 247 248 247 246 248 250 252 254 253 249 243 239 236 231 230 231 231 231 231 229 226 224 223 221 219 217 215 212 208 203 202 203 205 208 211 214 216 217 221 228 234 236 238 240 244 248 250 250 251 251 252 254 256 258
240 240 242 243 243 244 244 245 246 247 247 248 249 250 252 253 254 255 256 257 257 258 256 251 247 245 243 241 241 242 243 245 248 250 251 250 250 250 251 253 255 253 247 242 237 232 231 231 231 231 231 230 227 225 223 221 218 216 215 211 206 203 202 202 205 208 211 213 217 220 224 232 238 238 238 242 245 246 246 246 248 251 251 252 254 253
242 242 242 243 244 244 244 245 246 247 247 248 250 251 252 253 254 255 256 257 257 255 253 250 247 244 243 244 245 245 244 244 246 248 251 252 252 252 251 251 253 255 252 245 236 231 230 231 231 231 231 230 228 226 223 220 218 216 214 211 206 203 202 202 203 207 208 207 211 222 230 236 242 242 240 241 242 242 244 246 248 250 252 252 251 248
245 244 244 244 245 245 246 246 247 248 248 249 251 252 254 254 255 255 255 255 254 252 249 248 247 245 243 244 247 248 247 245 245 246 249 251 253 253 252 251 251 252 253 248 237 231 231 231 230 231 231 230 228 226 223 220 217 215 213 210 207 205 204 203 203 206 208 205 203 214 230 237 242 244 243 240 239 241 245 247 247 247 248 249 250 250
247 246 246 246 247 247 247 248 248 249 249 250 251 252 254 255 254 254 253 251 250 249 246 245 246 246 245 245 247 249 249 247 246 246 248 250 252 253 253 252 251 250 251 249 240 233 232 232 230 231 231 230 228 226 224 220 217 214 212 210 208 208 206 205 205 206 208 207 204 206 220 229 233 238 242 241 240 243 247 246 245 244 245 247 251 253
248 247 247 247 247 248 248 248 248 248 248 248 248 249 251 252 252 251 250 250 249 247 246 245 245 246 248 248 249 250 249 247 247 247 248 249 252 254 254 252 250 249 249 248 243 236 233 232 231 231 231 231 229 226 224 221 217 214 212 210 209 209 208 206 206 207 207 206 204 205 213 221 223 228 234 238 240 244 246 245 244 245 247 250 253 254
247 247 246 245 245 245 246 246 246 247 246 246 246 246 248 249 250 250 250 250 250 248 247 246 246 246 248 250 252 252 249 246 246 247 248 248 249 252 253 253 252 251 249 247 245 240 235 233 231 230 231 231 229 226 224 221 218 214 213 211 210 210 210 207 206 208 208 206 204 206 212 218 221 223 226 230 234 238 242 245 245 246 248 251 253 254
246 245 245 244 243 243 243 244 245 246 246 246 245 245 246 248 249 249 249 249 248 248 247 246 246 246 247 249 250 251 248 245 244 245 247 248 248 249 252 254 255 253 251 248 245 243 239 235 232 231 231 231 230 227 224 222 219 215 213 212 211 211 211 209 207 209 210 208 206 208 213 217 220 223 225 227 231 234 238 242 244 246 249 251 253 255
246 245 244 244 244 243 243 244 245 246 246 245 244 244 245 246 247 247 247 247 246 246 246 245 245 245 246 246 247 247 245 243 243 244 245 247 248 249 251 254 255 254 252 249 246 244 242 238 235 233 231 230 229 228 225 222 220 217 215 213 212 212 212 211 209 210 212 211 208 209 213 216 220 224 227 229 232 235 237 240 242 245 248 250 252 254
247 245 244 243 243 242 242 243 243 244 243 243 242 242 243 244 245 246 246 246 246 246 245 244 244 244 244 244 244 243 243 243 244 245 246 247 248 249 250 252 253 253 253 250 247 245 243 240 237 233 232 231 229 228 226 224 221 219 217 215 214 214 214 213 212 212 214 215 213 211 212 216 220 225 228 231 234 236 238 240 242 244 247 249 250 252
244 243 241 241 240 238 237 238 238 239 239 238 239 240 241 243 244 245 246 246 247 246 245 243 243 244 244 243 242 241 242 243 245 246 246 247 248 249 250 251 252 252 251 250 249 247 245 242 239 235 233 232 230 228 226 225 223 221 219 218 216 216 215 215 214 214 215 216 216 215 215 217 221 225 228 231 234 236 238 240 242 244 247 249 250 252
238 237 236 236 235 234 233 234 234 235 235 235 237 239 241 242 243 244 246 247 247 248 246 243 242 243 244 245 243 242 242 243 244 246 246 247 248 249 250 251 252 252 251 250 249 248 247 244 241 239 235 233 232 230 227 225 224 222 221 220 219 218 217 217 217 216 217 218 218 218 218 220 222 225 227 230 233 236 238 240 242 244 246 248 250 252
233 232 231 231 231 232 232 232 232 233 235 235 237 239 240 241 242 244 246 248 249 250 249 247 244 243 245 246 246 245 244 244 245 246 246 247 248 250 250 251 251 252 251 250 249 249 248 245 242 240 237 234 232 231 228 226 224 224 223 222 221 220 219 219 219 219 219 220 221 221 222 223 224 225 227 230 232 235 237 240 242 244 245 247 248 250
232 232 231 230 230 231 231 231 232 233 236 237 238 239 241 242 245 248 250 252 253 254 254 252 249 246 246 247 248 248 248 247 246 246 246 247 248 250 251 251 251 251 251 250 249 249 249 247 244 241 239 236 232 230 229 227 225 224 224 223 222 222 221 220 220 220 221 222 223 224 224 226 227 228 230 231 233 235 237 239 241 243 245 246 248 250
229 231 232 232 232 233 233 234 234 235 238 241 242 244 245 247 250 252 255 256 257 257 257 256 253 250 248 247 246 247 248 248 248 247 247 248 249 250 251 251 252 252 251 250 249 249 249 248 246 243 240 238 234 231 229 228 227 225 225 224 224 223 223 222 222 222 222 224 225 226 227 228 229 230 232 234 236 237 238 239 241 242 244 246 247 248
Height
10638 10642 10643 10643 10642 10643 10645 10647 10648 10647 10646 10647 10647 10648 10649 10645 10642 10637 10638 10647 10652 10656 10662 10663 10664 10661 10660 10662 10663 10665 10668 10672 10672 10670 10674 10682 10684 10684 10684 10682 10681 10687 10693 10696 10700 10704 10706 10709 10712 10714 10717 10722 10725 10719 10707 10703 10707 10710 10710 10711 10711 10710 10710 10712 10712 10713 10715 10717 10717 10717 10719 10721 10723 10726 10728 10731 10733 10734 10735 10736 10737 10737 10736 10738 10738 10738
10634 10635 10635 10634 10637 10639 10641 10643 10643 10641 10640 10640 10642 10642 10641 10638 10634 10632 10633 10638 10645 10650 10653 10656 10659 10659 10659 10657 10656 10656 10661 10664 10663 10664 10668 10673 10675 10675 10676 10676 10675 10680 10686 10688 10691 10696 10699 10701 10703 10704 10705 10709 10713 10708 10700 10699 10702 10703 10703 10704 10705 10705 10705 10705 10705 10706 10709 10712 10713 10713 10714 10717 10719 10720 10723 10727 10729 10731 10732 10733 10734 10733 10733 10735 10735 10734
10627 10626 10626 10629 10634 10636 10636 10638 10637 10636 10634 10634 10637 10636 10633 10631 10630 10630 10630 10633 10640 10642 10643 10651 10657 10656 10654 10651 10648 10649 10652 10656 10656 10657 10662 10666 10667 10667 10668 10669 10669 10674 10680 10682 10684 10687 10691 10692 10694 10695 10695 10697 10701 10699 10695 10696 10697 10697 10697 10699 10700 10700 10701 10701 10701 10703 10705 10708 10710 10710 10711 10713 10714 10716 10718 10721 10724 10727 10728 10729 10730 10730 10730 10731 10732 10731
10618 10618 10622 10626 10629 10631 10631 10632 10632 10631 10628 10629 10633 10630 10626 10626 10626 10626 10625 10629 10636 10637 10638 10646 10650 10648 10648 10645 10643 10642 10645 10648 10650 10650 10652 10657 10660 10659 10659 10662 10662 10667 10673 10675 10676 10679 10682 10684 10685 10686 10685 10686 10690 10692 10692 10692 10692 10691 10694 10695 10695 10696 10698 10699 10700 10701 10703 10705 10706 10707 10707 10708 10708 10710 10713 10716 10720 10723 10724 10725 10726 10727 10727 10728 10728 10727
10610 10614 10619 10621 10623 10625 10626 10628 10628 10626 10622 10624 10629 10625 10621 10622 10623 10622 10621 10625 10631 10633 10636 10639 10641 10642 10641 10639 10637 10638 10640 10642 10643 10644 10644 10646 10650 10651 10651 10654 10657 10661 10666 10668 10668 10670 10672 10674 10676 10677 10677 10677 10680 10685 10687 10686 10685 10687 10691 10691 10690 10692 10694 10695 10697 10698 10699 10701 10702 10702 10703 10704 10704 10706 10708 10712 10716 10718 10719 10721 10723 10723 10723 10724 10724 10723
10604 10609 10614 10616 10617 10619 10621 10623 10622 10620 10617 10620 10623 10620 10617 10617 10619 10619 10619 10622 10625 10628 10630 10633 10636 10637 10636 10635 10633 10632 10634 10636 10637 10638 10638 10636 10638 10642 10646 10648 10651 10656 10662 10662 10661 10662 10662 10663 10665 10667 10667 10668 10673 10677 10679 10678 10679 10683 10686 10686 10686 10687 10689 10691 10692 10693 10694 10695 10697 10697 10698 10699 10701 10703 10705 10709 10712 10714 10716 10718 10719 10719 10719 10720 10721 10721
10600 10604 10609 10610 10611 10614 10617 10616 10615 10614 10614 10616 10616 10614 10613 10613 10615 10617 10616 10618 10620 10621 10623 10627 10630 10631 10632 10631 10627 10626 10628 10630 10631 10632 10634 10631 10629 10635 10641 10643 10644 10649 10654 10655 10654 10653 10654 10655 10655 10656 10658 10662 10667 10670 10670 10671 10673 10677 10679 10679 10681 10683 10685 10686 10687 10688 10688 10690 10691 10692 10693 10694 10697 10700 10703 10706 10709 10711 10713 10714 10714 10714 10715 10716 10718 10718
10595 10598 10603 10604 10607 10611 10611 10608 10608 10609 10611 10610 10609 10609 10609 10609 10611 10613 10613 10613 10614 10616 10619 10620 10622 10625 10628 10625 10621 10621 10623 10624 10624 10627 10630 10629 10627 10629 10632 10635 10638 10643 10647 10650 10649 10647 10648 10649 10650 10650 10653 10658 10661 10663 10664 10664 10667 10671 10671 10672 10677 10680 10680 10681 10682 10683 10684 10686 10687 10689 10690 10690 10693 10696 10699 10703 10705 10708 10709 10710 10710 10711 10711 10713 10714 10714
10589 10593 10597 10599 10602 10606 10604 10601 10602 10604 10606 10604 10602 10604 10606 10606 10607 10608 10609 10609 10609 10614 10615 10613 10612 10616 10620 10617 10615 10617 10618 10619 10620 10622 10624 10625 10627 10626 10622 10626 10632 10636 10641 10644 10643 10642 10642 10644 10644 10643 10646 10650 10653 10658 10660 10658 10659 10661 10661 10666 10672 10675 10676 10678 10679 10679 10681 10682 10684 10685 10686 10687 10689 10692 10695 10698 10701 10704 10706 10707 10707 10708 10708 10710 10711 10710
10583 10587 10591 10594 10596 10599 10597 10594 10595 10599 10601 10598 10596 10601 10601 10601 10604 10602 10603 10604 10605 10610 10610 10605 10603 10606 10612 10611 10609 10612 10614 10614 10615 10617 10616 10615 10620 10621 10616 10619 10624 10626 10631 10635 10636 10636 10637 10639 10636 10634 10636 10640 10644 10647 10644 10642 10645 10650 10653 10660 10667 10670 10672 10674 10674 10676 10677 10679 10680 10681 10683 10685 10686 10689 10692 10695 10697 10699 10701 10703 10704 10705 10706 10706 10705 10705
10578 10581 10586 10588 10590 10592 10590 10589 10591 10593 10595 10593 10591 10595 10596 10596 10599 10598 10598 10600 10602 10606 10603 10597 10594 10597 10604 10604 10603 10609 10613 10610 10608 10608 10608 10606 10608 10610 10609 10610 10614 10617 10620 10624 10627 10627 10629 10631 10630 10629 10629 10632 10636 10633 10627 10628 10636 10643 10648 10656 10664 10667 10669 10670 10671 10673 10674 10676 10677 10677 10679 10682 10683 10685 10688 10690 10693 10695 10696 10699 10700 10702 10703 10701 10700 10702
10572 10576 10581 10581 10582 10585 10584 10584 10586 10588 10590 10589 10586 10588 10590 10591 10594 10593 10593 10595 10599 10600 10594 10590 10590 10591 10596 10598 10599 10603 10607 10605 10601 10598 10598 10599 10598 10599 10600 10602 10604 10608 10611 10615 10618 10618 10621 10626 10628 10628 10625 10625 10628 10627 10626 10632 10638 10641 10646 10654 10660 10664 10666 10667 10668 10670 10672 10673 10674 10674 10676 10678 10679 10681 10683 10686 10688 10691 10693 10694 10697 10698 10698 10698 10698 10698
10567 10571 10574 10575 10575 10577 10579 10579 10580 10581 10583 10584 10582 10582 10584 10585 10588 10588 10587 10589 10593 10593 10587 10584 10585 10585 10586 10591 10595 10597 10598 10596 10593 10590 10590 10592 10591 10592 10594 10595 10597 10600 10604 10607 10609 10610 10614 10618 10621 10621 10619 10619 10622 10624 10629 10635 10636 10638 10643 10650 10655 10659 10661 10663 10665 10666 10668 10670 10670 10671 10672 10673 10674 10676 10678 10680 10683 10686 10688 10690 10692 10693 10694 10694 10695 10695
10562 10564 10567 10570 10570 10570 10572 10573 10574 10574 10577 10579 10577 10576 10577 10579 10581 10582 10582 10584 10586 10586 10583 10579 10579 10579 10579 10584 10589 10590 10591 10590 10585 10583 10584 10586 10587 10587 10588 10590 10591 10594 10597 10599 10600 10601 10605 10608 10611 10613 10613 10615 10618 10622 10627 10631 10632 10634 10640 10646 10650 10654 10656 10658 10660 10662 10664 10665 10666 10667 10667 10668 10670 10671 10673 10675 10677 10680 10682 10684 10686 10687 10688 10690 10691 10692
10556 10558 10560 10562 10564 10564 10565 10567 10568 10568 10571 10574 10573 10571 10571 10573 10573 10574 10576 10579 10580 10580 10578 10574 10572 10573 10573 10577 10581 10582 10583 10585 10581 10577 10578 10581 10583 10583 10583 10584 10587 10590 10592 10592 10593 10595 10598 10601 10604 10608 10611 10612 10614 10618 10623 10626 10629 10633 10638 10643 10647 10650 10651 10653 10655 10657 10659 10660 10661 10662 10663 10665 10666 10667 10668 10669 10671 10674 10676 10678 10680 10682 10683 10685 10686 10688
10550 10552 10553 10554 10558 10560 10561 10560 10561 10563 10565 10566 10568 10567 10565 10565 10566 10567 10569 10572 10575 10575 10572 10568 10566 10568 10568 10570 10573 10573 10575 10577 10575 10573 10573 10575 10578 10579 10579 10580 10584 10586 10587 10587 10589 10591 10593 10596 10599 10603 10606 10608 10610 10615 10619 10623 10627 10630 10636 10640 10643 10646 10648 10650 10652 10653 10655 10656 10657 10657 10659 10661 10663 10662 10663 10664 10665 10668 10670 10672 10674 10676 10677 10679 10682 10684
10545 10548 10548 10548 10552 10556 10557 10554 10554 10557 10558 10558 10562 10562 10559 10557 10559 10561 10561 10564 10568 10569 10567 10562 10559 10561 10564 10565 10567 10567 10566 10567 10568 10569 10569 10570 10573 10576 10576 10578 10581 10582 10582 10583 10585 10587 10590 10593 10596 10600 10603 10605 10609 10613 10617 10620 10623 10627 10632 10637 10640 10643 10645 10648 10650 10651 10652 10652 10652 10652 10653 10656 10658 10657 10658 10659 10660 10662 10664 10666 10668 10670 10672 10673 10676 10678
10540 10542 10543 10545 10546 10548 10551 10550 10549 10550 10550 10551 10553 10555 10553 10551 10553 10555 10555 10558 10561 10562 10561 10556 10552 10555 10558 10560 10561 10561 10559 10560 10562 10564 10565 10567 10569 10572 10573 10575 10578 10579 10578 10579 10582 10584 10587 10591 10595 10599 10601 10604 10607 10611 10615 10618 10620 10624 10630 10635 10637 10640 10643 10647 10649 10648 10647 10645 10644 10645 10646 10648 10650 10652 10653 10654 10655 10657 10659 10661 10663 10665 10667 10667 10669 10672
10536 10538 10540 10540 10538 10539 10543 10545 10544 10543 10543 10543 10544 10545 10547 10547 10547 10549 10551 10553 10554 10554 10554 10550 10546 10549 10552 10553 10554 10553 10553 10555 10556 10557 10559 10562 10565 10567 10569 10572 10574 10575 10576 10577 10579 10581 10584 10588 10592 10596 10599 10602 10605 10609 10612 10614 10617 10622 10628 10631 10633 10635 10640 10644 10646 10641 10636 10636 10637 10639 10640 10641 10643 10645 10647 10648 10650 10653 10655 10658 10660 10661 10662 10662 10663 10666
10532 10533 10534 10532 10528 10530 10538 10540 10538 10536 10535 10534 10535 10538 10540 10541 10543 10545 10546 10547 10547 10547 10546 10543 10542 10545 10547 10547 10546 10546 10547 10549 10549 10551 10553 10557 10560 10564 10567 10569 10571 10571 10573 10574 10576 10578 10581 10585 10590 10593 10596 10600 10603 10605 10607 10610 10613 10618 10622 10625 10627 10630 10633 10635 10635 10631 10629 10631 10634 10636 10637 10636 10636 10637 10639 10642 10645 10648 10651 10653 10654 10655 10656 10657 10658 10660
10524 10526 10526 10522 10520 10524 10533 10534 10529 10526 10526 10527 10528 10532 10535 10536 10538 10541 10541 10540 10540 10540 10539 10537 10537 10540 10541 10541 10540 10541 10542 10544 10544 10545 10548 10552 10556 10560 10564 10566 10567 10568 10570 10571 10572 10574 10578 10584 10588 10590 10592 10595 10598 10600 10603 10605 10608 10612 10615 10618 10619 10621 10624 10627 10629 10629 10629 10630 10631 10634 10633 10629 10628 10630 10632 10635 10639 10642 10646 10648 10649 10649 10650 10651 10652 10654
10516 10519 10517 10513 10514 10518 10524 10524 10519 10518 10521 10522 10523 10526 10529 10532 10533 10534 10534 10533 10533 10533 10532 10532 10532 10534 10535 10535 10535 10536 10538 10539 10540 10541 10544 10548 10552 10556 10559 10562 10563 10564 10565 10567 10568 10570 10573 10579 10584 10587 10589 10591 10593 10596 10598 10601 10603 10604 10607 10609 10612 10614 10616 10620 10625 10628 10627 10625 10624 10626 10624 10621 10621 10624 10627 10630 10634 10637 10640 10643 10643 10643 10644 10645 10647 10648
10508 10510 10508 10505 10509 10513 10515 10515 10513 10514 10515 10515 10518 10521 10523 10525 10527 10527 10527 10527 10527 10526 10526 10526 10527 10529 10530 10529 10530 10532 10533 10534 10535 10537 10540 10543 10547 10550 10554 10557 10559 10560 10560 10562 10565 10566 10569 10572 10577 10580 10583 10585 10587 10590 10593 10595 10593 10593 10597 10602 10606 10609 10608 10606 10607 10611 10613 10613 10614 10614 10614 10615 10617 10619 10623 10626 10629 10632 10634 10637 10637 10638 10639 10640 10641 10642
10498 10501 10501 10500 10503 10506 10507 10507 10508 10508 10507 10508 10513 10516 10516 10518 10520 10520 10521 10521 10520 10521 10522 10521 10522 10525 10525 10524 10525 10527 10529 10530 10530 10532 10535 10539 10542 10545 10548 10550 10553 10555 10556 10558 10560 10563 10565 10568 10571 10574 10576 10579 10582 10584 10586 10585 10581 10584 10592 10597 10601 10604 10604 10603 10602 10602 10603 10605 10608 10610 10610 10612 10614 10616 10619 10622 10624 10626 10628 10630 10632 10633 10634 10634 10635 10637
10490 10494 10495 10494 10497 10500 10500 10500 10502 10502 10500 10502 10507 10509 10510 10512 10512 10514 10515 10514 10514 10516 10517 10516 10517 10519 10519 10519 10520 10522 10524 10525 10525 10528 10531 10533 10536 10539 10541 10544 10547 10550 10552 10554 10556 10558 10561 10563 10566 10568 10571 10574 10577 10579 10579 10576 10575 10581 10590 10594 10597 10599 10601 10604 10604 10602 10601 10602 10606 10609 10609 10610 10611 10613 10616 10617 10619 10621 10623 10625 10626 10628 10628 10629 10631 10633
10483 10487 10488 10488 10491 10493 10493 10494 10496 10496 10495 10496 10499 10502 10504 10505 10506 10508 10509 10509 10508 10510 10511 10511 10512 10514 10515 10515 10516 10517 10518 10520 10521 10523 10526 10527 10530 10532 10535 10538 10541 10544 10547 10549 10552 10554 10556 10558 10560 10562 10565 10568 10571 10572 10572 10571 10572 10579 10586 10589 10591 10593 10596 10599 10601 10602 10601 10601 10603 10606 10607 10607 10609 10611 10613 10614 10616 10617 10619 10621 10622 10623 10623 10624 10626 10628
10476 10479 10480 10482 10484 10485 10486 10487 10489 10490 10489 10489 10492 10495 10499 10500 10500 10502 10503 10503 10503 10505 10506 10507 10508 10509 10510 10510 10510 10511 10514 10515 10516 10519 10521 10523 10525 10527 10530 10533 10535 10538 10541 10543 10546 10548 10551 10553 10554 10557 10559 10561 10564 10566 10566 10566 10568 10574 10579 10583 10585 10587 10590 10594 10599 10602 10601 10601 10602 10604 10604 10605 10607 10609 10611 10612 10614 10615 10617 10618 10618 10619 10620 10620 10622 10623
10469 10471 10473 10475 10477 10478 10479 10480 10483 10483 10482 10483 10487 10491 10494 10495 10494 10495 10497 10498 10499 10500 10501 10502 10504 10504 10505 10506 10506 10507 10509 10510 10511 10513 10516 10519 10520 10523 10526 10528 10531 10533 10536 10538 10541 10544 10546 10547 10549 10551 10553 10555 10557 10559 10560 10561 10564 10568 10572 10577 10580 10582 10584 10589 10595 10599 10599 10599 10601 10601 10602 10603 10605 10606 10608 10610 10612 10613 10615 10615 10615 10616 10616 10616 10617 10618
10461 10464 10466 10468 10469 10471 10473 10474 10475 10475 10475 10479 10483 10485 10487 10489 10488 10488 10490 10492 10493 10495 10497 10498 10499 10500 10501 10502 10502 10503 10504 10505 10507 10509 10512 10514 10516 10519 10522 10524 10526 10529 10531 10534 10536 10538 10540 10542 10543 10545 10547 10549 10551 10553 10555 10556 10559 10563 10567 10571 10574 10577 10580 10584 10589 10593 10596 10598 10601 10601 10602 10602 10602 10603 10605 10607 10609 10610 10611 10613 10612 10612 10612 10612 10612 10614
10453 10456 10459 10460 10462 10465 10466 10467 10468 10469 10471 10474 10476 10478 10481 10482 10482 10483 10484 10486 10488 10491 10492 10494 10496 10497 10497 10498 10498 10498 10500 10502 10504 10506 10508 10510 10513 10515 10517 10519 10522 10524 10526 10529 10531 10533 10534 10536 10538 10540 10541 10543 10545 10547 10549 10551 10554 10557 10560 10564 10569 10572 10576 10579 10583 10589 10595 10599 10601 10602 10600 10600 10600 10600 10602 10604 10604 10605 10607 10608 10608 10607 10607 10607 10608 10609
10446 10449 10451 10453 10455 10458 10459 10460 10462 10464 10467 10470 10471 10472 10475 10476 10476 10478 10479 10481 10483 10486 10488 10490 10492 10492 10492 10493 10493 10494 10495 10498 10500 10502 10504 10506 10508 10510 10513 10515 10517 10519 10521 10524 10526 10528 10529 10530 10532 10534 10536 10537 10539 10540 10542 10545 10547 10550 10554 10558 10563 10567 10571 10574 10579 10586 10592 10595 10597 10598 10597 10596 10596 10595 10596 10598 10599 10599 10600 10602 10603 10602 10602 10603 10604 10605
10439 10441 10444 10446 10448 10451 10452 10454 10457 10460 10462 10464 10465 10466 10468 10469 10470 10472 10474 10475 10478 10481 10484 10486 10487 10486 10486 10488 10489 10490 10491 10493 10495 10498 10500 10502 10504 10506 10507 10509 10511 10513 10515 10518 10520 10522 10524 10525 10527 10528 10530 10532 10533 10534 10536 10538 10541 10544 10548 10552 10557 10562 10566 10570 10576 10583 10587 10590 10592 10593 10593 10592 10590 10589 10590 10591 10592 10593 10594 10595 10596 10596 10596 10598 10600 10600
10432 10435 10438 10441 10442 10445 10447 10449 10452 10454 10455 10458 10460 10461 10462 10463 10464 10467 10469 10470 10472 10475 10478 10481 10481 10480 10481 10483 10484 10485 10486 10488 10490 10492 10495 10497 10499 10500 10501 10503 10505 10507 10509 10512 10514 10516 10518 10519 10521 10522 10524 10526 10528 10529 10531 10533 10535 10538 10541 10546 10551 10557 10562 10567 10573 10579 10582 10584 10586 10588 10589 10589 10587 10585 10585 10585 10585 10586 10588 10589 10590 10589 10591 10593 10594 10595
10426 10428 10432 10435 10436 10439 10442 10443 10445 10447 10449 10453 10456 10456 10456 10457 10458 10461 10464 10465 10467 10469 10472 10474 10476 10475 10476 10478 10479 10480 10481 10483 10485 10487 10490 10492 10493 10495 10496 10498 10499 10501 10503 10506 10508 10510 10511 10513 10514 10516 10518 10520 10522 10524 10526 10527 10530 10532 10536 10540 10546 10552 10558 10563 10568 10572 10574 10576 10579 10582 10584 10585 10583 10582 10581 10581 10581 10581 10582 10584 10584 10583 10584 10586 10587 10588
10421 10423 10427 10429 10430 10433 10435 10436 10438 10441 10445 10449 10449 10448 10450 10451 10452 10455 10458 10460 10462 10464 10466 10468 10470 10470 10471 10472 10474 10475 10477 10480 10481 10483 10485 10487 10488 10490 10491 10492 10494 10495 10498 10500 10502 10503 10505 10506 10508 10510 10511 10514 10516 10519 10520 10522 10525 10528 10531 10536 10541 10548 10554 10559 10563 10567 10569 10570 10572 10575 10577 10578 10578 10578 10577 10577 10578 10577 10577 10578 10579 10578 10577 10577 10578 10581
10415 10417 10420 10422 10423 10426 10427 10429 10432 10435 10438 10441 10442 10441 10443 10446 10447 10449 10452 10454 10456 10458 10460 10462 10464 10465 10466 10467 10469 10471 10474 10476 10477 10478 10480 10482 10483 10485 10486 10487 10488 10490 10492 10494 10496 10497 10498 10500 10502 10504 10506 10508 10511 10513 10515 10517 10520 10524 10527 10531 10537 10544 10550 10555 10559 10562 10564 10565 10567 10569 10572 10573 10573 10573 10573 10573 10574 10573 10572 10573 10573 10572 10570 10571 10572 10575
10409 10411 10413 10415 10417 10419 10421 10423 10426 10429 10431 10433 10434 10434 10436 10439 10441 10443 10446 10449 10450 10452 10454 10456 10458 10460 10460 10462 10464 10466 10469 10471 10472 10474 10476 10477 10479 10480 10481 10481 10483 10484 10486 10488 10490 10492 10493 10495 10496 10498 10500 10503 10506 10508 10510 10513 10516 10519 10523 10527 10533 10539 10545 10550 10554 10557 10559 10561 10564 10566 10568 10569 10568 10568 10569 10570 10570 10569 10568 10568 10567 10565 10565 10566 10568 10571
10403 10405 10406 10408 10410 10413 10415 10416 10419 10422 10424 10425 10426 10427 10429 10433 10435 10437 10440 10442 10444 10446 10448 10450 10452 10454 10455 10456 10458 10461 10464 10466 10467 10469 10470 10471 10473 10474 10475 10476 10477 10479 10481 10483 10485 10487 10489 10490 10491 10493 10495 10498 10500 10503 10505 10508 10511 10515 10519 10523 10528 10534 10540 10544 10548 10550 10552 10557 10561 10563 10563 10562 10561 10562 10564 10565 10565 10565 10564 10562 10560 10559 10561 10562 10564 10566
10396 10398 10399 10400 10402 10404 10408 10409 10411 10414 10416 10417 10418 10420 10423 10426 10428 10430 10433 10435 10437 10440 10442 10444 10446 10448 10450 10451 10453 10455 10458 10460 10462 10462 10463 10464 10466 10468 10470 10471 10472 10474 10476 10478 10480 10482 10484 10485 10486 10487 10490 10492 10495 10497 10500 10503 10507 10510 10514 10518 10523 10527 10533 10538 10541 10543 10545 10549 10554 10557 10558 10555 10553 10555 10559 10560 10560 10559 10558 10556 10555 10555 10556 10557 10559 10561
10386 10388 10390 10392 10394 10397 10400 10402 10403 10406 10408 10410 10412 10414 10417 10419 10421 10423 10426 10427 10429 10433 10435 10438 10439 10442 10444 10446 10447 10450 10452 10454 10456 10456 10456 10458 10460 10461 10463 10465 10467 10468 10470 10472 10475 10477 10477 10479 10480 10481 10484 10486 10489 10491 10494 10498 10501 10505 10509 10513 10517 10521 10526 10530 10534 10536 10538 10541 10544 10548 10551 10550 10548 10550 10553 10554 10554 10554 10553 10551 10550 10551 10551 10551 10552 10554
10377 10380 10383 10384 10386 10389 10392 10394 10395 10397 10400 10403 10406 10408 10409 10410 10412 10415 10418 10420 10422 10426 10429 10431 10434 10436 10438 10440 10442 10444 10445 10448 10449 10449 10450 10452 10453 10455 10456 10458 10460 10461 10463 10466 10468 10470 10471 10473 10474 10476 10478 10480 10483 10486 10489 10492 10496 10500 10503 10507 10510 10514 10519 10523 10527 10530 10532 10534 10537 10540 10543 10544 10543 10544 10547 10548 10548 10548 10547 10545 10544 10545 10546 10546 10545 10546
10369 10372 10375 10377 10379 10381 10384 10385 10386 10388 10391 10394 10398 10401 10401 10400 10402 10406 10409 10413 10416 10419 10422 10425 10428 10430 10432 10434 10436 10437 10439 10441 10443 10444 10445 10446 10447 10448 10449 10451 10453 10455 10456 10458 10461 10464 10466 10467 10468 10470 10472 10475 10478 10480 10483 10487 10491 10494 10498 10501 10504 10507 10511 10516 10519 10522 10525 10528 10530 10532 10535 10536 10537 10537 10539 10541 10541 10540 10538 10538 10538 10539 10540 10539 10538 10539
10362 10364 10367 10369 10370 10372 10374 10375 10376 10379 10383 10387 10391 10393 10392 10391 10393 10398 10402 10406 10410 10413 10416 10419 10421 10423 10425 10427 10429 10431 10433 10435 10437 10438 10439 10440 10441 10441 10441 10443 10446 10448 10449 10451 10454 10457 10459 10461 10463 10465 10467 10469 10472 10474 10477 10481 10485 10488 10491 10494 10497 10500 10504 10508 10512 10515 10518 10521 10523 10525 10527 10528 10528 10528 10530 10530 10531 10531 10530 10530 10530 10532 10532 10531 10531 10531
10355 10357 10359 10361 10362 10364 10365 10366 10369 10373 10377 10381 10384 10386 10386 10385 10387 10391 10395 10399 10402 10405 10408 10411 10414 10417 10419 10421 10422 10424 10426 10428 10430 10431 10433 10434 10434 10434 10435 10437 10439 10441 10443 10444 10447 10449 10452 10455 10458 10460 10461 10464 10466 10469 10472 10475 10478 10482 10485 10487 10490 10493 10497 10501 10505 10508 10511 10513 10514 10516 10518 10519 10519 10520 10520 10520 10520 10521 10521 10521 10521 10522 10523 10523 10523 10524
10349 10351 10353 10354 10355 10358 10360 10361 10364 10368 10371 10375 10378 10380 10379 10379 10380 10384 10388 10392 10394 10397 10401 10404 10407 10410 10412 10414 10416 10418 10420 10421 10423 10425 10426 10427 10428 10428 10429 10431 10433 10435 10436 10438 10439 10442 10445 10448 10451 10454 10456 10458 10460 10463 10466 10469 10472 10475 10478 10481 10484 10487 10490 10493 10497 10500 10502 10505 10506 10507 10509 10511 10511 10511 10512 10512 10512 10513 10513 10513 10514 10515 10516 10517 10517 10517
10344 10345 10347 10348 10350 10353 10355 10357 10359 10362 10366 10369 10371 10372 10372 10372 10374 10378 10381 10385 10387 10390 10394 10398 10400 10403 10405 10408 10410 10412 10413 10415 10416 10418 10420 10421 10421 10422 10423 10425 10427 10428 10429 10431 10432 10434 10437 10441 10444 10448 10450 10452 10455 10457 10460 10463 10466 10469 10472 10475 10478 10480 10482 10486 10488 10491 10494 10496 10497 10498 10499 10501 10502 10503 10503 10504 10505 10505 10505 10506 10507 10507 10508 10509 10509 10509
10339 10340 10342 10343 10345 10348 10350 10351 10354 10357 10360 10362 10364 10365 10366 10367 10370 10372 10375 10378 10381 10384 10388 10391 10394 10396 10399 10401 10403 10405 10407 10408 10410 10411 10413 10414 10415 10416 10417 10418 10420 10421 10423 10424 10425 10428 10430 10434 10438 10442 10445 10447 10449 10452 10454 10457 10460 10463 10466 10468 10471 10473 10475 10478 10480 10482 10484 10486 10488 10489 10490 10491 10492 10493 10494 10495 10496 10497 10497 10498 10499 10500 10500 10501 10501 10501
10336 10337 10338 10339 10341 10343 10345 10347 10349 10352 10354 10356 10358 10359 10361 10363 10365 10367 10370 10372 10375 10378 10382 10385 10388 10390 10392 10395 10397 10399 10401 10402 10404 10405 10406 10407 10408 10409 10411 10412 10413 10414 10416 10417 10418 10420 10423 10427 10431 10435 10438 10441 10443 10445 10448 10450 10453 10456 10459 10461 10463 10465 10468 10470 10471 10473 10475 10478 10479 10480 10481 10482 10482 10483 10484 10486 10487 10488 10489 10489 10490 10492 10492 10493 10493 10494
10333 10334 10335 10337 10338 10340 10342 10344 10346 10348 10350 10351 10353 10355 10356 10358 10361 10363 10365 10367 10370 10373 10377 10380 10382 10385 10387 10389 10391 10392 10394 10395 10397 10398 10399 10400 10401 10402 10404 10405 10406 10407 10408 10409 10411 10413 10415 10418 10422 10425 10429 10432 10435 10437 10440 10442 10445 10448 10450 10452 10454 10457 10460 10461 10463 10465 10467 10469 10471 10472 10473 10473 10474 10475 10476 10476 10478 10479 10480 10480 10481 10483 10484 10484 10485 10486
10330 10332 10333 10334 10336 10338 10340 10341 10343 10345 10346 10347 10349 10351 10352 10355 10357 10359 10362 10364 10367 10370 10372 10374 10377 10379 10381 10383 10384 10386 10386 10387 10389 10391 10392 10393 10393 10395 10396 10397 10398 10398 10400 10402 10404 10405 10407 10410 10412 10416 10419 10422 10425 10428 10431 10433 10436 10438 10440 10443 10445 10448 10450 10452 10455 10457 10459 10461 10462 10463 10464 10465 10466 10467 10467 10468 10469 10470 10471 10472 10472 10473 10474 10475 10476 10477
10329 10330 10332 10333 10335 10336 10338 10339 10341 10342 10343 10344 10346 10348 10350 10353 10355 10357 10359 10361 10364 10366 10367 10369 10371 10373 10375 10376 10378 10378 10379 10379 10381 10383 10384 10384 10385 10386 10387 10388 10389 10390 10391 10394 10395 10397 10399 10401 10403 10407 10409 10411 10414 10418 10422 10424 10426 10428 10431 10433 10435 10437 10440 10443 10446 10449 10451 10452 10453 10454 10455 10456 10457 10458 10459 10460 10460 10461 10462 10463 10464 10464 10465 10466 10467 10468